This is the latest recevied weather packets stored in our database for station/object KG5APU. If no packets are shown the sender has not sent any weather packets the latest 10 day(s).
| Time | Temp. | Humidity | Pressure | Rain* | Wind** | Luminosity | Snow |
|---|---|---|---|---|---|---|---|
| 1777818661 | 21.11° C | 60% | 1022.1 hPa | 0 mm | - | 408 W/m² | - |
| 1777818061 | 20° C | 62% | 1022.1 hPa | 0 mm | - | 372 W/m² | - |
| 1777817461 | 20° C | 63% | 1022.2 hPa | 0 mm | - | 337 W/m² | - |
| 1777816861 | 19.44° C | 65% | 1022.1 hPa | 0 mm | - | 287 W/m² | - |
| 1777816260 | 18.89° C | 66% | 1022.1 hPa | 0 mm | - | 266 W/m² | - |
| 1777815661 | 18.33° C | 67% | 1022.1 hPa | 0 mm | - | 232 W/m² | - |
| 1777815060 | 17.78° C | 68% | 1022 hPa | 0 mm | - | 204 W/m² | - |
| 1777814460 | 17.78° C | 67% | 1021.9 hPa | 0 mm | - | 175 W/m² | - |
| 1777813859 | 17.78° C | 67% | 1021.9 hPa | 0 mm | - | 149 W/m² | - |
| 1777813254 | 17.78° C | 68% | 1021.8 hPa | 0 mm | - | 123 W/m² | - |
| 1777812649 | 16.67° C | 69% | 1022.1 hPa | 0 mm | - | 100 W/m² | - |
| 1777812049 | 16.67° C | 69% | 1021.7 hPa | 0 mm | - | 78 W/m² | - |
| 1777811449 | 15.56° C | 71% | 1021.9 hPa | 0 mm | - | 59 W/m² | - |
| 1777810849 | 15° C | 74% | 1021.5 hPa | 0 mm | - | 34 W/m² | - |
| 1777810248 | 15° C | 74% | 1021.3 hPa | 0 mm | - | 26 W/m² | - |
| 1777809649 | 14.44° C | 74% | 1021.3 hPa | 0 mm | - | 19 W/m² | - |
| 1777809043 | 14.44° C | 75% | 1021.4 hPa | 0 mm | - | 11 W/m² | - |
| 1777808443 | 14.44° C | 74% | 1021.3 hPa | 0 mm | - | 5 W/m² | - |
| 1777807839 | 13.89° C | 76% | 1021.2 hPa | 0 mm | - | 1 W/m² | - |
| 1777807238 | 13.33° C | 77% | 1021.1 hPa | 0 mm | - | 0 W/m² | - |
| 1777806637 | 12.78° C | 80% | 1021.2 hPa | 0 mm | - | 0 W/m² | - |
| 1777806036 | 12.22° C | 83% | 1021 hPa | 0 mm | - | 0 W/m² | - |
| 1777805436 | 12.22° C | 83% | 1021 hPa | 0 mm | - | 0 W/m² | - |
| 1777804832 | 12.22° C | 82% | 1021 hPa | 0 mm | - | 0 W/m² | - |
| 1777804227 | 12.22° C | 82% | 1020.9 hPa | 0 mm | - | 0 W/m² | - |
* Rain latest hour (hover to see other rain measurements)
** Current wind speed in m/s (hover to see current wind gust speed)